Location: Holkham
(52.9500°N, 0.8167°E)
Time: 22:13:41
(UTC+00:00)

USA 234 - Pass Details

Date: 19 May 2025
Orbit: 1096 x 1111 km, 123.0° (Epoch: 05 June)

Event Time Altitude Azimuth Distance (km) Brightness Sun altitude
Rises 20:48:25 0° 60° (ENE) 3,926 6.0 -6.9°
Reaches altitude 10° 20:51:01 10° 66° (ENE) 2,968 5.4 -7.1°
Maximum altitude 20:57:20 49° 140° (SE) 1,406 3.5 -7.8°
Drops below altitude 10° 21:03:38 10° 214° (SSW) 2,965 5.4 -8.4°
Sets 21:06:14 0° 219° (SW) 3,922 6.0 -8.6°
